Home   Weather   Stassfurt   Past weeks

Flag for Germany Past Weather in Stassfurt, Saxony-Anhalt, Germany — Yesterday and Last 2 Weeks

Now
72 °F

Passing clouds.


Feels Like: 72 °F
Forecast: 56 / 67 °F
Wind: 9 mph from South

Location: Leipzig-Schkeuditz

Current Time: Aug 18, 2017 at 9:09:22 am

Latest Report: Aug 18, 2017 at 8:50 am


Visibility: N/A

Pressure: 29.98 "Hg

Humidity: 78%

Dew Point: 64 °F

Location of StassfurtLocation

Past Weather in Stassfurt — Graph

°F

Stassfurt Temperature Yesterday

Maximum temperature yesterday: 79 °F (at 1:20 pm)
Minimum temperature yesterday: 59 °F (at 1:50 am)
Average temperature yesterday: 70 °F

High & Low Weather Summary for the Past Weeks

 TemperatureHumidityPressure
High84 °F (Aug 3, 5:20 pm)100% (Aug 5, 7:20 pm)30.21 "Hg (Aug 5, 7:20 pm)
Low52 °F (Aug 14, 5:20 am)30% (Aug 7, 3:50 pm)29.80 "Hg (Aug 3, 4:20 pm)
Average67 °F73%30.02 "Hg
* Reported Aug 3 7:20 am — Aug 18 7:50 am, Stassfurt. Weather by CustomWeather, © 2017

Note: Actual official high and low records may vary slightly from our data, if they occured in-between our weather recording intervals... More about our weather records

Advertising

Stassfurt Weather History for the Previous 24 Hours

Scroll right to see more
 ConditionsComfort  
Time TempWeatherWind HumidityBarometerVisibility
7:50 am
Fri, Aug 18
68 °FPassing clouds.6 mph83%29.98 "HgN/A
7:20 am64 °FFog.5 mph94%30.01 "HgN/A
6:50 am63 °FFog.5 mph100%29.98 "HgN/A
6:20 am64 °FPassing clouds.5 mph94%30.01 "HgN/A
5:50 am64 °FClear.6 mph88%30.01 "Hg10 mi
5:20 am63 °FClear.6 mph94%30.01 "Hg10 mi
4:50 am64 °FPassing clouds.6 mph88%30.01 "HgN/A
4:20 am64 °FPassing clouds.6 mph88%29.98 "HgN/A
3:50 am66 °FPassing clouds.6 mph83%30.01 "HgN/A
3:20 am66 °FClear.6 mph83%30.01 "Hg10 mi
2:50 am66 °FClear.6 mph88%30.01 "Hg10 mi
2:20 am68 °FClear.8 mph83%30.01 "Hg10 mi
1:50 am68 °FClear.6 mph83%30.01 "Hg10 mi
1:20 am68 °FPartly cloudy.7 mph88%30.01 "HgN/A
12:50 am68 °FClear.7 mph88%30.01 "Hg10 mi
12:20 am68 °FClear.9 mph88%30.01 "Hg10 mi
11:50 pm
Thu, Aug 17
70 °FLight rain. Clear.10 mph83%30.01 "HgN/A
11:20 pm70 °FLight rain. Passing clouds.13 mph83%30.01 "HgN/A
10:50 pm72 °FPassing clouds.6 mph73%30.01 "HgN/A
10:20 pm72 °FClear.7 mph73%29.98 "Hg10 mi
9:50 pm72 °FClear.7 mph73%29.98 "Hg10 mi
9:20 pm73 °FClear.7 mph69%29.98 "Hg10 mi
8:50 pm73 °FClear.6 mph69%29.98 "Hg10 mi
8:20 pm73 °FSunny.6 mph65%29.98 "Hg10 mi
7:50 pm75 °FSunny.7 mph65%29.98 "Hg10 mi
7:20 pm75 °FSunny.9 mph65%29.98 "Hg10 mi
6:50 pm77 °FPartly sunny.10 mph57%29.98 "HgN/A
6:20 pm79 °FLight rain. Partly sunny.10 mph58%29.98 "HgN/A
5:50 pm79 °FPartly sunny.9 mph54%29.98 "HgN/A
5:20 pm79 °FMore clouds than sun.8 mph61%29.98 "HgN/A
4:50 pm79 °FPartly sunny.5 mph58%29.98 "HgN/A
4:20 pm79 °FBroken clouds.5 mph58%30.01 "HgN/A
3:50 pm79 °FMore clouds than sun.7 mph54%30.01 "HgN/A
2:50 pm77 °FPartly sunny.8 mph61%30.01 "HgN/A
2:20 pm75 °FPartly sunny.9 mph61%30.04 "HgN/A
1:50 pm79 °FBroken clouds.14 mph58%30.04 "HgN/A
1:20 pm79 °FBroken clouds.13 mph58%30.04 "HgN/A
12:50 pm77 °FPartly sunny.14 mph61%30.04 "HgN/A
12:20 pm75 °FPartly sunny.12 mph65%30.07 "HgN/A
11:50 am75 °FPartly sunny.13 mph61%30.07 "HgN/A
11:20 am75 °FPartly sunny.12 mph61%30.09 "HgN/A
10:50 am73 °FSunny.10 mph65%30.09 "Hg10 mi
10:20 am73 °FScattered clouds.9 mph69%30.09 "HgN/A
9:50 am72 °FScattered clouds.9 mph69%30.09 "HgN/A
9:20 am70 °FScattered clouds.8 mph73%30.09 "HgN/A
Weather by CustomWeather, © 2017

See weather overviewHow to use our weather pages